EHI
25 23 27 27 18 10 6 4 4 3 2 1 1 1 0 0 0 0 0 0 0 0 0 0 1 2 2 1 0 0 0 0 0 0 0 0 0 0 0 0 0 0 0
23 24 28 29 21 12 7 4 4 4 2 0 1 1 1 0 0 0 0 0 0 0 0 0 0 1 1 0 0 0 0 0 0 0 0 0 0 0 0 0 0 0 0
20 22 27 30 24 16 10 6 5 4 2 0 0 1 1 1 0 0 0 0 0 0 0 0 0 0 0 0 0 0 0 0 0 0 0 0 0 0 0 0 0 0 0
17 19 25 29 25 18 13 9 7 4 1 0 0 0 1 1 1 0 0 0 0 0 0 0 0 0 0 0 0 0 0 0 0 0 0 0 0 0 0 0 0 0 0
17 18 25 28 22 17 14 10 7 4 1 0 0 0 0 1 1 0 0 0 0 0 0 0 0 0 0 0 0 0 0 0 0 0 0 0 0 0 0 0 0 0 0
19 20 24 24 18 14 12 8 5 3 1 0 0 0 0 0 1 1 1 0 0 0 0 0 0 0 0 0 0 0 0 0 0 0 0 0 0 0 0 0 0 0 0
20 19 21 20 15 11 9 7 4 3 1 0 0 0 0 0 1 2 1 0 0 0 0 0 0 0 0 0 0 0 0 0 0 0 0 0 0 0 0 0 0 0 0
19 18 18 18 13 8 7 6 5 4 2 1 1 1 1 1 1 1 1 0 0 0 0 0 0 0 0 0 0 0 0 0 0 0 0 0 0 0 0 0 0 0 0
17 16 16 13 9 6 6 6 6 5 3 2 1 2 2 1 1 1 0 0 0 0 0 0 0 0 0 0 0 0 0 0 0 0 0 0 0 0 0 0 0 0 0
12 12 12 10 7 5 6 6 6 6 5 3 1 1 1 1 1 0 0 0 0 0 0 0 0 0 0 0 0 0 0 0 0 0 0 0 0 0 0 0 0 0 0
9 9 9 9 8 6 5 6 6 6 5 3 1 0 0 0 0 0 0 0 0 0 0 0 0 0 0 0 0 0 0 0 0 0 0 0 0 0 0 0 0 0 0
8 7 8 9 9 7 6 6 5 5 4 2 1 0 0 0 0 0 0 0 0 0 0 0 0 0 0 0 0 0 0 0 0 0 0 0 0 0 0 0 0 0 0
7 7 7 8 9 8 7 6 6 5 4 2 0 0 0 0 0 0 0 0 0 0 0 0 0 0 0 0 0 0 0 0 0 0 0 0 0 0 0 0 0 0 0
7 7 7 7 8 9 8 7 6 6 4 2 0 0 0 0 0 0 0 0 0 0 0 0 0 0 0 0 0 0 0 0 0 0 0 0 0 0 0 0 0 0 0
6 7 7 7 7 7 7 6 5 5 4 3 1 1 1 0 0 0 1 0 0 0 0 0 0 0 0 0 0 0 0 0 0 0 0 0 0 0 0 0 0 0 0
5 6 7 6 6 6 6 5 4 4 5 4 3 2 1 0 0 0 0 0 0 0 0 0 0 0 0 0 0 0 0 0 0 0 0 0 0 0 0 0 0 0 0
2 4 6 6 6 6 5 5 4 4 4 4 3 2 1 0 0 0 0 0 0 0 0 0 0 0 0 0 0 0 0 0 0 0 0 0 0 0 0 0 0 0 0
1 3 4 4 3 3 3 3 3 3 3 3 1 1 0 0 0 0 0 0 0 0 0 0 0 0 0 0 0 0 0 0 0 0 0 0 0 0 0 0 0 0 0
0 1 2 2 1 1 1 1 1 1 1 1 1 0 0 0 0 0 0 0 0 0 0 0 0 0 0 0 0 0 0 0 0 0 0 0 0 0 0 0 0 0 0
0 0 1 1 0 0 0 0 0 0 0 0 0 0 0 0 0 0 0 0 0 0 0 0 0 0 0 0 0 0 0 0 0 0 0 0 0 0 0 0 0 0 0
0 0 0 0 0 0 0 0 0 0 0 0 0 0 0 0 0 0 0 0 0 0 0 0 0 0 0 0 0 0 0 0 0 0 0 0 0 0 0 0 0 0 0
0 0 0 0 0 0 0 0 0 0 0 0 0 0 0 0 0 0 0 0 0 0 0 0 0 0 0 0 0 0 0 0 0 0 0 0 0 0 0 0 0 0 0
0 0 0 0 0 0 0 0 0 0 0 0 0 0 0 0 0 0 0 0 0 0 0 0 0 0 0 0 0 0 0 0 0 0 0 0 0 0 0 0 0 0 0
0 0 0 0 0 0 0 0 0 0 0 0 0 0 0 0 0 0 0 0 0 0 0 0 0 0 0 0 0 0 0 0 0 0 0 0 0 0 0 0 0 0 0
0 0 0 0 0 0 0 0 0 0 0 0 0 0 0 0 0 0 0 0 0 0 0 0 0 0 0 0 0 0 0 0 0 0 0 0 0 0 0 0 0 0 0
0 0 0 0 0 0 0 0 0 0 0 0 0 0 0 0 0 0 0 0 0 0 0 0 0 0 0 0 0 0 0 0 0 0 0 0 0 0 0 0 0 0 0
Wind_Speed
7 8 9 10 10 10 10 9 9 9 9 9 8 8 8 8 8 8 8 7 7 7 7 7 8 8 8 9 9 8 8 8 7 6 5 5 5 6 6 6 7 5 9
10 9 9 10 10 10 9 9 9 9 8 8 8 8 8 8 8 7 7 7 7 7 7 7 7 8 8 8 8 7 7 6 5 4 2 2 2 4 6 7 6 4 7
11 10 9 10 10 10 9 9 9 9 9 8 8 8 7 7 7 7 7 7 7 7 7 7 7 8 7 7 7 6 5 5 3 2 2 1 2 3 5 5 5 5 5
10 9 9 10 11 10 10 10 10 10 9 8 8 8 7 7 6 6 6 6 6 7 7 7 7 7 7 7 6 5 4 4 5 6 3 1 3 5 5 4 4 4 4
9 9 9 10 11 10 10 10 10 10 9 9 8 8 8 7 7 6 6 6 7 7 6 7 6 6 6 6 5 4 4 5 7 7 2 2 3 5 4 4 3 3 3
9 9 8 10 11 10 10 10 10 10 9 8 8 8 7 7 7 7 7 7 7 7 6 6 6 6 5 5 4 4 5 7 8 4 2 3 3 4 4 3 3 3 3
8 8 8 10 10 10 10 9 9 9 9 8 8 7 7 7 7 8 8 7 6 6 6 6 6 5 5 5 4 5 6 8 5 2 2 3 4 5 4 4 3 3 4
8 8 8 10 10 10 9 9 9 9 8 8 7 7 7 7 7 7 7 7 6 6 5 5 5 4 4 4 4 5 6 8 5 3 2 3 5 5 5 4 4 5 4
7 7 7 6 8 9 9 9 8 8 8 7 7 6 6 7 7 7 7 6 6 5 5 5 4 4 4 3 3 5 6 7 4 2 3 3 5 5 5 5 5 5 5
6 5 5 6 6 6 6 8 8 7 7 7 6 5 4 5 6 6 6 5 5 5 4 4 3 3 2 2 3 5 6 6 2 2 3 4 6 6 6 6 5 6 6
5 4 4 4 4 5 5 7 6 6 5 5 5 4 3 2 3 4 4 3 3 3 3 2 2 2 2 2 3 5 5 2 2 3 3 6 7 6 6 6 6 6 6
4 4 3 4 4 3 3 4 3 3 3 2 2 2 2 2 1 2 4 2 1 1 2 2 3 2 2 1 2 3 2 2 2 3 4 7 7 6 6 6 6 6 6
4 4 4 4 4 3 2 2 2 2 1 2 2 1 2 2 1 2 1 1 0 0 1 2 2 1 1 0 1 1 1 2 2 3 4 8 7 7 7 7 7 7 6
5 4 4 4 4 3 2 2 2 2 2 2 2 2 2 1 1 1 1 1 1 1 1 2 1 1 1 1 1 1 2 1 2 2 4 7 7 7 7 7 6 6 6
5 4 4 4 4 3 3 2 3 3 2 2 2 2 2 2 1 1 1 1 2 1 1 2 2 2 2 2 2 2 2 2 2 3 3 6 7 8 8 7 7 7 7
5 4 4 4 4 4 2 2 2 3 2 3 3 3 3 2 1 2 2 2 1 1 1 2 2 2 2 2 2 2 3 3 3 3 3 4 7 7 8 8 8 8 7
5 5 4 4 4 4 3 3 2 2 2 2 2 3 3 3 2 2 2 2 1 2 2 2 2 2 2 2 2 3 3 3 3 3 3 2 2 5 7 8 9 9 9
5 5 4 4 3 4 3 2 2 2 3 2 2 2 3 3 3 2 2 2 2 2 2 2 2 2 2 2 2 2 2 2 3 3 3 3 2 3 5 8 9 9 9
5 5 4 4 4 4 3 2 2 2 2 2 2 2 3 3 3 2 2 2 2 2 2 2 2 2 2 2 1 1 1 1 1 2 3 3 3 3 2 4 7 8 9
5 5 5 4 4 4 3 2 2 2 2 2 2 2 3 3 3 2 1 2 2 2 2 2 2 2 1 1 2 1 0 1 1 2 2 2 3 3 3 3 3 4 8
4 4 4 4 3 3 2 2 2 1 1 2 2 3 3 2 2 2 1 2 2 1 1 2 2 2 1 2 2 1 1 1 2 2 2 2 2 3 3 3 3 2 2
4 4 4 4 3 3 2 1 2 2 1 2 2 2 2 2 1 1 2 1 1 1 2 2 2 1 1 2 1 1 2 1 1 1 2 2 1 2 2 3 3 3 2
4 4 4 4 3 3 3 2 2 2 1 1 1 1 1 1 1 1 1 1 1 1 1 1 1 1 1 1 1 1 1 1 2 1 1 1 1 1 1 1 2 2 3
4 4 4 4 3 3 3 3 3 2 2 2 2 1 1 1 2 1 1 1 1 1 1 1 2 1 0 1 1 0 1 1 0 2 2 0 0 1 1 1 1 1 2
4 4 4 4 4 3 3 3 2 1 1 1 2 2 1 1 1 1 1 0 0 0 1 1 1 1 1 0 1 1 1 1 1 1 3 2 2 1 1 1 1 1 1
5 4 4 4 4 3 3 3 2 2 2 2 1 1 1 1 1 2 1 1 1 1 1 0 1 1 1 1 1 1 1 1 1 1 2 2 3 2 2 1 2 1 1
Wind_Direction
114 120 126 124 124 124 122 118 114 110 106 103 102 103 98 92 87 83 79 76 72 71 72 75 72 69 64 61 57 55 55 56 59 62 63 59 55 53 47 47 47 56 61
118 122 123 123 123 122 121 118 113 109 106 104 100 99 99 92 88 83 78 75 73 73 71 72 69 68 64 60 57 55 56 55 56 54 55 59 74 73 62 54 50 51 54
116 120 120 121 120 119 117 115 111 109 106 103 100 96 93 91 87 84 81 76 74 72 69 67 66 65 62 59 56 53 53 48 24 340 310 246 144 114 85 67 56 48 42
114 117 116 116 117 117 116 115 112 109 106 101 99 96 90 87 89 87 82 75 73 71 70 67 65 63 60 57 52 46 38 12 339 318 289 206 105 106 90 69 49 38 33
108 110 112 112 115 115 116 115 112 108 105 99 95 92 86 83 81 80 77 70 68 67 67 66 62 58 55 53 46 33 9 344 327 309 312 51 76 93 84 67 39 21 14
107 107 111 109 114 113 114 115 114 110 107 102 96 90 87 84 79 75 72 69 67 67 66 65 62 57 51 46 36 14 347 336 323 308 3 55 73 74 63 48 23 359 347
109 110 115 109 114 113 110 112 113 111 107 102 99 95 92 87 79 73 68 68 67 67 64 62 59 55 50 43 31 8 346 332 309 329 24 56 64 61 44 23 3 344 335
107 110 117 110 110 110 107 105 109 110 108 103 100 96 91 86 81 74 68 65 64 64 60 56 51 45 41 35 21 359 342 331 334 348 38 64 62 52 32 16 359 346 338
104 113 121 118 114 111 105 104 104 108 110 106 102 99 95 90 86 80 70 63 60 59 56 49 43 36 30 18 358 340 329 324 324 329 32 59 46 35 19 7 2 359 353
97 107 123 126 128 128 117 110 108 109 115 117 113 111 111 111 102 87 75 60 55 50 49 43 35 26 8 341 319 314 312 315 305 4 40 53 46 30 17 11 5 1 2
98 96 100 105 110 121 133 136 130 126 134 141 134 140 137 123 109 106 98 74 54 38 28 25 8 347 321 296 281 290 305 299 356 46 50 49 43 32 22 21 18 15 14
117 112 101 95 96 109 134 145 148 136 136 138 115 118 109 93 86 96 131 130 64 11 351 329 322 299 276 269 275 280 305 345 34 51 50 51 44 33 29 27 24 21 21
129 118 101 96 93 90 88 107 93 92 97 81 67 71 85 80 72 89 119 125 271 42 0 322 305 288 316 9 340 326 340 29 44 54 53 52 44 38 30 25 23 20 21
122 115 101 98 93 81 84 94 101 88 69 74 67 48 71 78 51 62 78 43 28 22 354 333 307 324 343 9 5 6 18 43 63 73 68 60 48 39 30 24 22 19 17
120 113 108 105 101 90 77 83 91 85 79 81 59 45 54 76 59 53 69 52 38 8 353 328 336 341 355 1 4 29 25 32 54 76 81 69 56 41 30 25 23 22 18
122 117 111 108 108 105 93 83 82 89 81 74 62 52 43 56 58 62 66 53 26 358 343 339 355 1 5 12 12 24 33 31 43 55 73 70 59 46 33 27 26 22 19
127 121 116 112 111 107 98 92 92 94 88 81 77 62 51 46 42 62 68 56 9 353 358 5 1 9 8 18 20 30 39 29 46 56 55 56 51 47 40 33 29 29 26
127 122 118 120 114 102 97 86 90 90 85 81 80 72 55 47 35 51 61 49 13 9 12 5 12 10 12 20 13 15 41 34 42 66 67 57 48 51 45 44 38 34 30
124 123 117 109 110 101 97 89 82 81 77 79 75 70 54 44 36 54 52 40 25 22 16 4 17 19 17 8 345 357 52 65 37 58 72 70 64 60 56 50 47 41 35
114 118 119 114 108 106 110 104 91 78 70 69 74 71 57 46 36 43 51 43 29 36 19 12 7 11 15 343 331 344 129 125 88 71 68 73 70 61 55 53 48 37 36
115 120 123 120 117 117 118 121 118 114 101 82 76 69 60 53 44 48 42 46 41 42 22 19 9 4 5 3 9 334 282 169 128 128 91 71 67 64 61 58 51 38 28
133 132 128 127 131 131 128 116 109 107 99 104 91 72 65 62 56 57 54 55 57 43 29 26 15 5 352 26 41 357 338 333 327 132 111 102 85 71 67 61 55 40 34
146 149 135 133 132 131 131 113 101 92 93 97 106 101 76 76 103 74 44 51 59 70 68 31 21 31 343 334 55 85 61 297 320 298 212 138 123 98 92 89 74 47 32
151 145 132 140 137 137 131 134 149 156 164 171 153 149 127 116 115 105 76 35 47 75 69 24 39 356 16 310 326 356 199 177 237 310 304 287 160 168 166 115 87 63 44
146 145 144 149 144 141 143 153 156 148 150 132 127 140 150 151 139 150 156 171 196 88 84 44 15 337 333 274 275 297 305 305 226 216 279 295 304 269 207 169 146 146 73
146 149 155 155 152 153 161 164 161 162 158 144 153 164 182 173 182 178 183 195 191 180 170 198 249 277 280 293 287 264 215 238 279 259 268 284 283 269 250 210 176 170 147